Mount Airy, NC

9:58 AM EST on December 05, 2016 (GMT -0500)
Mount Airy-Surry County

Weather History for KMWK - December, 2011

Change the Weather History Date:

Thursday, December 15, 2011

  Actual Average (KINT) Record (KINT)
Temperature  
Mean Temperature 54 °F -  
Max Temperature 66 °F 48 °F 74 °F (1984)
Min Temperature 41 °F 31 °F 14 °F (1978)
Degree Days  
Heating Degree Days 12    
Growing Degree Days 4 (Base 50)    
Moisture  
Dew Point 46 °F    
Average Humidity 77    
Maximum Humidity 93    
Minimum Humidity 52    
Precipitation  
Precipitation 0.00 in - - ()
Sea Level Pressure  
Sea Level Pressure 30.16 in    
Wind  
Wind Speed 2 mph (SSW)    
Max Wind Speed 12 mph    
Max Gust Speed 18 mph    
Visibility 8 miles    
Events Fog    
Averages and records for this station are not official NWS values.
T = Trace of Precipitation, MM = Missing Value Source: NWS Daily Summary

Daily Weather History Graph

Daily Weather History Graph

Search for Another Location

Airport or City:

Trip Planner

Search our weather history database for the weather conditions in past years. The results will help you decide how hot, cold, wet, or windy it might be!

Date:

Astronomy

Dec. 15, 2011 Rise Set
Actual Time 7:26 AM EST 5:08 PM EST
Civil Twilight 6:57 AM EST 5:36 PM EST
Nautical Twilight 6:25 AM EST 6:09 PM EST
Astronomical Twilight 5:54 AM EST 6:40 PM EST
Moon 10:25 PM EST (12/15) 10:48 AM EST (12/15)
Length of Visible Light 10h 38m
Length of Day
9h 41m
Waning Gibbous, 75% of the Moon is Illuminated
Dec 15
Waning Gibbous
Dec 17
Last Quarter
Dec 24
New
Jan 1
First Quarter
Jan 9
Full

Hourly Weather History & Observations

Time (EST) Temp. Dew Point Humidity Pressure Visibility Wind Dir Wind Speed Gust Speed Precip Events Conditions
12:15 AM 44.6 °F 41.0 °F 87% 30.26 in 10.0 mi Calm Calm - N/A   Clear
12:35 AM 44.6 °F 41.0 °F 87% 30.26 in 10.0 mi Calm Calm - N/A   Clear
12:55 AM 46.4 °F 41.0 °F 81% 30.25 in 10.0 mi Calm Calm - N/A   Clear
1:15 AM 44.6 °F 41.0 °F 87% 30.25 in 10.0 mi Calm Calm - N/A   Clear
1:35 AM 44.6 °F 41.0 °F 87% 30.24 in 10.0 mi Calm Calm - N/A   Clear
1:55 AM 46.4 °F 41.0 °F 81% 30.24 in 10.0 mi Calm Calm - N/A   Clear
2:15 AM 44.6 °F 41.0 °F 87% 30.24 in 10.0 mi Calm Calm - N/A   Clear
2:35 AM 44.6 °F 41.0 °F 87% 30.23 in 10.0 mi Calm Calm - N/A   Clear
2:55 AM 46.4 °F 42.8 °F 87% 30.24 in 10.0 mi Calm Calm - N/A   Clear
3:15 AM 46.4 °F 41.0 °F 81% 30.23 in 10.0 mi Calm Calm - N/A   Clear
3:35 AM 44.6 °F 41.0 °F 87% 30.23 in 10.0 mi Calm Calm - N/A   Clear
3:55 AM 42.8 °F 39.2 °F 87% 30.23 in 7.0 mi Calm Calm - N/A   Clear
4:15 AM 42.8 °F 37.4 °F 81% 30.22 in 7.0 mi Calm Calm - N/A   Clear
4:35 AM 42.8 °F 39.2 °F 87% 30.23 in 7.0 mi Calm Calm - N/A   Clear
4:55 AM 41.0 °F 37.4 °F 87% 30.23 in 5.0 mi Calm Calm - N/A   Clear
5:15 AM 41.0 °F 37.4 °F 87% 30.22 in 5.0 mi Calm Calm - N/A   Clear
5:35 AM 41.0 °F 37.4 °F 87% 30.22 in 7.0 mi Calm Calm - N/A   Clear
5:55 AM 41.0 °F 37.4 °F 87% 30.21 in 5.0 mi Calm Calm - N/A   Clear
6:15 AM 41.0 °F 37.4 °F 87% 30.21 in 5.0 mi Calm Calm - N/A   Clear
6:35 AM 41.0 °F 37.4 °F 87% 30.22 in 5.0 mi Calm Calm - N/A   Scattered Clouds
7:15 AM 42.8 °F 41.0 °F 93% 30.22 in 5.0 mi Calm Calm - N/A   Overcast
7:35 AM 44.6 °F 41.0 °F 87% 30.22 in 5.0 mi Calm Calm - N/A   Overcast
7:55 AM 42.8 °F 41.0 °F 93% 30.20 in 2.5 mi Calm Calm - N/A   Overcast
8:15 AM 44.6 °F 42.8 °F 93% 30.21 in 3.0 mi Calm Calm - N/A   Overcast
8:35 AM 46.4 °F 42.8 °F 87% 30.22 in 1.2 mi Calm Calm - N/A   Overcast
8:55 AM 46.4 °F 42.8 °F 87% 30.22 in 1.0 mi Calm Calm - N/A   Overcast
9:15 AM 46.4 °F 44.6 °F 93% 30.22 in 0.8 mi Calm Calm - N/A   Overcast
9:55 AM 46.4 °F 44.6 °F 93% 30.22 in 0.2 mi Calm Calm - N/A Fog Fog
10:15 AM 46.4 °F 44.6 °F 93% 30.21 in 0.5 mi Calm Calm - N/A Fog Fog
10:35 AM 48.2 °F 44.6 °F 87% 30.21 in 1.2 mi SSE 3.5 mph - N/A   Overcast
10:55 AM 50.0 °F 46.4 °F 87% 30.20 in 2.5 mi SE 3.5 mph - N/A   Overcast
11:15 AM 50.0 °F 46.4 °F 87% 30.19 in 4.0 mi Calm Calm - N/A   Overcast
11:35 AM 55.4 °F 50.0 °F 82% 30.18 in 7.0 mi SSW 6.9 mph - N/A   Mostly Cloudy
11:55 AM 57.2 °F 50.0 °F 77% 30.15 in 7.0 mi Calm Calm - N/A   Scattered Clouds
12:15 PM 59.0 °F 50.0 °F 72% 30.14 in 10.0 mi South 6.9 mph - N/A   Scattered Clouds
12:35 PM 60.8 °F 48.2 °F 63% 30.12 in 10.0 mi SSW 9.2 mph - N/A   Scattered Clouds
12:55 PM 62.6 °F 48.2 °F 59% 30.12 in 10.0 mi SW 8.1 mph 16.1 mph N/A   Clear
1:15 PM 62.6 °F 48.2 °F 59% 30.10 in 10.0 mi SW 10.4 mph - N/A   Clear
1:35 PM 62.6 °F 48.2 °F 59% 30.10 in 10.0 mi WSW 10.4 mph 16.1 mph N/A   Clear
1:55 PM 62.6 °F 48.2 °F 59% 30.10 in 10.0 mi SW 6.9 mph 16.1 mph N/A   Clear
2:15 PM 64.4 °F 48.2 °F 56% 30.09 in 10.0 mi SW 5.8 mph - N/A   Clear
2:35 PM 64.4 °F 46.4 °F 52% 30.08 in 10.0 mi SW 11.5 mph 18.4 mph N/A   Clear
2:55 PM 64.4 °F 48.2 °F 56% 30.07 in 10.0 mi SSW 9.2 mph 16.1 mph N/A   Clear
3:15 PM 66.2 °F 50.0 °F 56% 30.07 in 10.0 mi SW 10.4 mph - N/A   Clear
3:35 PM 64.4 °F 50.0 °F 59% 30.07 in 10.0 mi SSW 8.1 mph - N/A   Clear
3:55 PM 64.4 °F 51.8 °F 64% 30.07 in 10.0 mi SSW 4.6 mph - N/A   Clear
4:15 PM 64.4 °F 51.8 °F 64% 30.08 in 10.0 mi SW 6.9 mph - N/A   Scattered Clouds
4:35 PM 64.4 °F 51.8 °F 64% 30.06 in 10.0 mi South 5.8 mph - N/A   Scattered Clouds
4:55 PM 62.6 °F 51.8 °F 68% 30.05 in 10.0 mi SSW 5.8 mph - N/A   Mostly Cloudy
5:15 PM 62.6 °F 51.8 °F 68% 30.05 in 10.0 mi SSW 6.9 mph - N/A   Overcast
5:35 PM 62.6 °F 51.8 °F 68% 30.06 in 10.0 mi SSW 6.9 mph - N/A   Scattered Clouds
5:55 PM 62.6 °F 51.8 °F 68% 30.08 in 10.0 mi SSW 6.9 mph - N/A   Scattered Clouds
6:15 PM 62.6 °F 51.8 °F 68% 30.08 in 10.0 mi SSW 6.9 mph - N/A   Overcast
6:35 PM 62.6 °F 51.8 °F 68% 30.08 in 10.0 mi SSW 5.8 mph - N/A   Overcast
6:55 PM 60.8 °F 51.8 °F 72% 30.07 in 10.0 mi SW 4.6 mph - N/A   Mostly Cloudy
7:15 PM 60.8 °F 51.8 °F 72% 30.08 in 10.0 mi SW 4.6 mph - N/A   Overcast
7:35 PM 60.8 °F 51.8 °F 72% 30.08 in 10.0 mi SW 3.5 mph - N/A   Overcast
7:55 PM 60.8 °F 51.8 °F 72% 30.08 in 10.0 mi WSW 3.5 mph - N/A   Overcast
8:15 PM 59.0 °F 51.8 °F 77% 30.08 in 10.0 mi SSW 3.5 mph - N/A   Overcast
8:35 PM 60.8 °F 51.8 °F 72% 30.08 in 10.0 mi SSW 4.6 mph - N/A   Overcast
8:55 PM 59.0 °F 51.8 °F 77% 30.08 in 10.0 mi SW 3.5 mph - N/A   Mostly Cloudy
9:15 PM 59.0 °F 51.8 °F 77% 30.07 in 10.0 mi Calm Calm - N/A   Scattered Clouds
9:35 PM 59.0 °F 51.8 °F 77% 30.08 in 10.0 mi Calm Calm - N/A   Mostly Cloudy
9:55 PM 59.0 °F 51.8 °F 77% 30.09 in 10.0 mi Calm Calm - N/A   Overcast
10:15 PM 57.2 °F 51.8 °F 82% 30.08 in 10.0 mi Calm Calm - N/A   Overcast
10:35 PM 59.0 °F 51.8 °F 77% 30.08 in 10.0 mi WSW 3.5 mph - N/A   Overcast
10:55 PM 59.0 °F 51.8 °F 77% 30.08 in 10.0 mi Calm Calm - N/A   Overcast
11:15 PM 59.0 °F 51.8 °F 77% 30.08 in 10.0 mi SSW 3.5 mph - N/A   Mostly Cloudy
11:35 PM 59.0 °F 51.8 °F 77% 30.08 in 10.0 mi Calm Calm - N/A   Clear
11:55 PM 59.0 °F 51.8 °F 77% 30.07 in 10.0 mi South 3.5 mph - N/A   Clear